DW7093 Weather Reports


time (UTC)temp
C
wind
direction
speed
KPH
gust
KPH
rain 1hr
cm
rain 24hr
cm
rain mn
cm
humidity
%
barometer
mb
20260509033010 10 243 0.0 0.0 0.00 0.05 0.03 100 1008.5
20260509031508 10 243 0.0 0.0 0.00 0.05 0.03 100 1008.5
20260509030009 10 243 0.0 0.0 0.00 0.05 0.03 100 1008.6
20260509024512 10 243 0.0 1.6 0.00 0.20 0.03 100 1008.6
20260509023006 11 243 0.0 1.6 0.00 0.20 0.03 100 1008.6
20260509021506 11 243 0.0 1.6 0.00 0.20 0.03 100 1008.7
20260509020006 12 239 0.0 0.0 0.00 0.20 0.03 100 1008.6
20260509014515 12 239 0.0 1.6 0.00 0.30 0.03 100 1008.6
20260509013004 12 239 0.0 1.6 0.00 0.30 0.03 100 1008.5
20260509011504 12 239 0.0 1.6 0.00 0.30 0.03 100 1008.4
20260509010003 13 262 0.0 6.4 0.00 0.30 0.03 100 1008.2
20260509004502 13 237 0.0 4.8 0.00 0.30 0.03 100 1008.1
20260509003004 13 222 0.0 0.0 0.00 0.30 0.03 100 1008.1
20260509001502 14 242 0.0 0.0 0.00 0.30 0.03 100 1008.1
20260509000001 14 206 0.0 0.0 0.00 0.30 0.03 100 1008.0
20260508234600 14 129 0.0 4.8 0.00 0.30 0.03 100 1008.1
20260508233059 14 21 0.0 11.3 0.00 0.30 0.03 100 1008.1
20260508231602 14 115 0.0 6.4 0.00 0.30 0.03 100 1008.2
20260508230100 15 215 0.0 8.0 0.00 0.30 0.03 100 1008.4
20260508224600 15 258 0.0 8.0 0.00 0.30 0.03 100 1008.5
20260508223056 15 171 1.6 12.9 0.00 0.30 0.03 100 1008.3
20260508221559 14 236 0.0 11.3 0.00 0.30 0.03 100 1008.4
20260508220054 15 311 0.0 9.7 0.00 0.30 0.03 100 1008.4
20260508214554 15 255 0.0 6.4 0.00 0.30 0.03 100 1008.5
20260508213053 15 117 1.6 6.4 0.00 0.30 0.03 100 1008.5
20260508211552 15 256 0.0 9.7 0.00 0.30 0.03 100 1008.4
20260508210050 15 260 0.0 8.0 0.00 0.30 0.03 100 1008.7
20260508204550 15 149 0.0 9.7 0.00 0.30 0.03 100 1009.0
20260508203045 15 151 1.6 4.8 0.00 0.30 0.03 100 1009.1
20260508201551 14 160 0.0 4.8 0.00 0.30 0.03 100 1009.2
20260508200040 13 147 3.2 11.3 0.00 0.30 0.03 100 1009.4
20260508194538 13 158 1.6 6.4 0.00 0.30 0.03 100 1009.6
20260508193034 13 167 1.6 4.8 0.00 0.30 0.03 100 1009.8
20260508191536 13 196 0.0 0.0 0.00 0.30 0.03 100 1010.3
20260508190035 13 134 0.0 4.8 0.00 0.30 0.03 100 1010.4
20260508184529 12 172 0.0 4.8 0.00 0.30 0.03 100 1010.7
20260508183029 12 143 0.0 4.8 0.00 0.30 0.03 100 1010.8
20260508181531 12 131 0.0 0.0 0.00 0.30 0.03 100 1010.9
20260508180020 11 137 0.0 0.0 0.00 0.30 0.03 100 1011.1
20260508174518 11 170 0.0 0.0 0.00 0.30 0.03 100 1011.4
20260508173021 11 174 0.0 0.0 0.00 0.30 0.03 100 1011.6
20260508171523 11 219 0.0 4.8 0.00 0.30 0.03 100 1011.9
20260508170014 11 146 0.0 3.2 0.00 0.30 0.03 100 1011.9
20260508164512 11 252 0.0 8.0 0.00 0.30 0.03 100 1012.2
20260508163017 11 257 4.8 8.0 0.00 0.30 0.03 100 1012.5
20260508161511 12 133 0.0 3.2 0.00 0.30 0.03 100 1012.3
20260508160011 12 159 0.0 6.4 0.00 0.30 0.03 100 1012.3
20260508154509 12 200 0.0 1.6 0.00 0.30 0.03 100 1012.0
20260508153006 11 217 0.0 9.7 0.00 0.30 0.03 100 1012.1
20260508151505 11 304 0.0 4.8 0.03 0.30 0.03 100 1012.3
20260508150004 10 256 1.6 4.8 0.03 0.30 0.03 100 1012.4
20260508144557 10 171 0.0 4.8 0.03 0.30 0.03 100 1012.5
20260508143102 9 213 0.0 3.2 0.03 0.30 0.03 100 1012.8
20260508141615 9 201 0.0 6.4 0.00 0.28 0.00 100 1013.0
20260508140055 9 269 0.0 6.4 0.00 0.28 0.00 100 1013.0
20260508134602 9 277 0.0 6.4 0.00 0.28 0.00 100 1012.9
20260508133051 9 221 1.6 8.0 0.00 0.28 0.00 100 1012.9
20260508131550 9 234 0.0 0.0 0.00 0.28 0.00 100 1012.9
20260508130049 8 259 0.0 3.2 0.00 0.28 0.00 100 1012.6
20260508124556 8 249 0.0 4.8 0.00 0.28 0.00 100 1012.7
20260508123049 8 246 0.0 6.4 0.00 0.28 0.00 100 1012.7
20260508121543 8 257 0.0 4.8 0.00 0.28 0.00 100 1012.7
20260508120040 7 220 0.0 3.2 0.00 0.28 0.00 100 1012.5
20260508114539 7 263 0.0 6.4 0.00 0.28 0.00 100 1012.5
20260508113048 7 285 1.6 6.4 0.00 0.28 0.00 100 1012.3
20260508111536 6 242 0.0 1.6 0.00 0.28 0.00 100 1012.2
20260508110035 6 245 0.0 1.6 0.00 0.28 0.00 100 1012.4
20260508104536 6 245 0.0 3.2 0.00 0.28 0.00 100 1012.3
20260508103037 6 223 0.0 3.2 0.00 0.28 0.00 100 1012.2
20260508101535 6 190 0.0 3.2 0.00 0.28 0.00 100 1011.9
20260508100033 7 310 0.0 4.8 0.00 0.28 0.00 100 1011.9
20260508094531 7 216 0.0 6.4 0.00 0.28 0.00 100 1012.1
20260508093030 7 300 0.0 4.8 0.00 0.28 0.00 100 1012.2
20260508091536 6 90 0.0 9.7 0.00 0.28 0.00 100 1012.2
20260508090037 6 314 1.6 11.3 0.00 0.28 0.00 100 1012.3
20260508084525 6 177 0.0 0.0 0.00 0.28 0.00 100 1012.2
20260508083024 6 196 0.0 0.0 0.00 0.28 0.00 100 1012.3
20260508081525 6 188 0.0 0.0 0.00 0.28 0.00 100 1012.3
20260508080033 5 240 0.0 0.0 0.00 0.28 0.00 100 1012.3
20260508074529 6 227 0.0 3.2 0.00 0.28 0.00 100 1012.4
20260508073025 6 240 0.0 6.4 0.00 0.28 0.00 100 1012.2
20260508071525 6 255 0.0 4.8 0.00 0.28 0.00 100 1012.2
20260508070020 6 257 0.0 3.2 0.00 0.28 0.00 100 1012.2
20260508064520 6 270 0.0 3.2 0.00 0.28 0.00 100 1012.4
20260508063016 6 250 0.0 4.8 0.00 0.28 0.00 100 1012.5
20260508061515 6 234 0.0 3.2 0.00 0.28 0.00 100 1012.5
20260508060014 6 129 0.0 1.6 0.00 0.28 0.00 100 1012.6
20260508054511 6 142 0.0 1.6 0.00 0.28 0.00 100 1012.8
20260508053012 6 142 0.0 0.0 0.00 0.28 0.00 100 1012.8
20260508051508 6 142 0.0 1.6 0.00 0.28 0.00 100 1012.8
20260508050008 6 165 0.0 3.2 0.00 0.28 0.00 100 1012.8
20260508044507 6 165 0.0 3.2 0.00 0.28 0.00 100 1012.9
20260508043007 6 164 0.0 3.2 0.03 0.28 0.00 100 1012.8
20260508041505 6 162 0.0 0.0 0.03 0.28 0.00 100 1012.8
20260508040008 6 167 0.0 0.0 0.03 0.28 0.00 100 1012.8
20260508034501 6 180 1.6 4.8 0.03 0.28 0.28 100 1012.7